Location: Toronto
(43.6672°N, 79.4170°W)
Time: 14:20:37
(UTC-04:00)

Daily predictions for brighter satellites

Satellite Brightness Start Highest point End
(mag) Time Altitude Azimuth Time Altitude Azimuth Time Altitude Azimuth
ATLAS CENTAUR R/B 4.1 19:19:33 10° NW 19:37:57 72° NNE 19:43:42 10° ESE
Cosmos 1271 Rocket 2.6 19:35:19 10° S 19:39:05 81° E 19:42:55 10° NNE
Cosmos 1943 3.8 19:34:06 10° SW 19:39:44 64° WNW 19:45:26 10° NNE
Cosmos 1814 Rocket 4.1 19:35:24 10° S 19:40:25 55° ESE 19:45:26 10° NNE
USA 234 4.4 19:36:03 10° SSE 19:42:16 45° SW 19:48:30 10° WNW
Cosmos 990 Rocket 4.0 19:38:02 10° NNW 19:43:12 68° ENE 19:48:19 10° SSE
Cosmos 1340 Rocket 2.8 19:42:01 10° N 19:46:06 80° E 19:50:11 10° SSE
Resurs 01 Rocket 2.9 19:51:19 10° ESE 19:54:46 23° ENE 19:58:14 10° NNE
Cosmos 2228 3.2 19:50:37 10° SSE 19:54:50 50° E 19:59:02 10° NNE
USA 81 4.0 19:52:02 10° N 19:57:18 66° E 20:02:33 10° SSE
Envisat 4.2 19:55:08 10° ESE 19:59:05 23° ENE 20:03:04 10° NNE
Geosat 4.1 19:54:37 10° SSE 19:59:39 86° WSW 20:04:43 10° NNW
Cosmos 2184 Rocket 4.3 19:54:50 10° SSE 20:00:46 45° E 20:06:47 10° NNE
Cosmos 2150 Rocket 4.2 19:55:46 10° NNW 20:01:07 85° WSW 20:06:32 10° SSE
CZ-2D R/B 4.2 19:58:12 10° SE 20:01:27 27° ENE 20:04:43 10° N
Cosmos 1606 Rocket 3.9 20:00:38 10° SSW 20:04:57 68° W 20:09:17 10° N
Cosmos 1953 Rocket 3.8 20:01:24 10° NNW 20:05:44 73° W 20:10:00 10° S
Cosmos 304 Rocket 3.8 20:02:27 10° S 20:07:07 55° ESE 20:11:49 10° NNE
Cosmos 2058 Rocket 3.0 20:04:08 10° S 20:08:29 77° E 20:12:52 10° N
Meteor 1-24 Rocket 3.9 20:03:28 10° N 20:09:21 55° ENE 20:15:03 10° SSE
ATLAS 2AS CENTAUR R/B 4.3 20:03:13 10° NNW 20:09:48 26° NNE 20:15:31 12° ENE
USA 186 3.4 20:10:59 12° NE 20:10:59 12° NE 20:11:31 10° NE
Cosmos 1943 Rocket 3.4 20:07:16 10° NW 20:12:33 44° WSW 20:17:51 10° S
Cosmos 389 Rocket 4.0 20:10:26 10° SSW 20:13:45 40° WNW 20:17:04 10° N
Cosmos 1356 Rocket 3.4 20:12:33 10° N 20:16:51 70° E 20:21:08 10° SSE
Cosmos 841 Rocket 3.4 20:12:45 10° SSW 20:17:53 77° ESE 20:23:02 10° NNE
SJ-6B 2.7 20:14:41 10° SSE 20:18:42 82° ENE 20:22:38 10° N
Cosmos 1937 Rocket 4.4 20:14:33 10° NNW 20:19:43 52° WSW 20:24:48 10° S
NOSS 3-1 (A) 4.1 20:12:29 10° NW 20:20:04 76° NE 20:28:16 11° SE
Cosmos 1953 4.1 20:22:47 15° ENE 20:22:47 15° ENE 20:24:17 10° NE
Cosmos 2327 Rocket 4.4 20:16:10 10° S 20:22:10 60° E 20:28:08 10° NNE
ALOS 3.6 20:20:40 10° S 20:25:05 43° W 20:29:33 10° NNW
NOSS 3-1 (C) 4.2 20:21:39 10° NW 20:29:16 79° SW 20:37:42 10° SSE
HJ-1C 3.8 20:32:18 10° S 20:35:37 63° W 20:38:58 10° NNW
H-2A R/B 3.6 20:33:54 10° S 20:37:31 50° W 20:41:12 10° NNW
Cosmos 1763 Rocket 4.2 20:33:09 10° SW 20:38:08 54° WNW 20:43:14 10° NNE
Cosmos 540 Rocket 3.4 20:33:36 10° S 20:38:35 59° ESE 20:43:37 10° NNE
Cosmos 1656 Rocket 4.5 20:43:32 10° NW 20:49:00 52° WSW 20:54:22 10° S
Meteor 1-22 Rocket 4.3 20:44:57 10° SSW 20:50:41 80° W 20:56:13 10° N
MOS 1-B Rocket 3.8 20:46:10 12° SSE 20:51:57 72° ENE 20:57:36 10° N
Cosmos 1766 3.7 20:51:46 10° SSW 20:55:39 61° W 20:59:32 10° N
COSMOS 2406 3.2 20:51:12 10° SSW 20:56:54 87° WNW 21:02:42 10° NNE
BREEZE M DEB (TANK) 3.4 20:53:28 10° WNW 20:59:30 46° SW 21:00:22 36° S
Cosmos 1758 3.2 21:04:38 63° E 21:04:38 63° E 21:08:32 10° NNE
Spot 2 Rocket 3.4 21:01:55 20° SSE 21:05:25 85° WSW 21:10:30 10° NNW
Cosmos 2154 Rocket 3.9 20:59:33 10° S 21:05:45 78° E 21:12:02 10° N
Meteor 1-21 Rocket 4.2 21:00:34 10° N 21:06:17 59° ENE 21:08:07 40° SE
Elektron 1 3.9 21:04:33 10° NW 21:07:33 69° WNW 21:07:33 69° WNW
YAOGAN 6 3.8 21:09:19 30° NNE 21:09:19 30° NNE 21:11:29 10° N
Resurs 1-3 3.9 21:06:53 23° S 21:09:36 67° W 21:13:59 10° NNW
Cosmos 2369 4.1 21:05:52 10° NNW 21:11:14 42° ENE 21:11:53 40° ENE
Cosmos 1544 4.4 21:10:25 10° SSW 21:13:50 40° WNW 21:17:16 10° N
Cosmos 1674 3.1 21:11:22 10° N 21:14:20 52° NNE 21:14:20 52° NNE
Cosmos 1939 Rocket 2.7 21:16:01 72° NNE 21:16:01 72° NNE 21:19:39 10° N
Cosmos 2341 Rocket 3.9 21:10:11 10° S 21:16:18 67° E 21:22:29 10° NNE
Cosmos 1076 Rocket 4.2 21:15:46 10° N 21:19:01 42° NNE 21:19:01 42° NNE
Cosmos 783 Rocket 4.3 21:17:53 10° SSW 21:23:04 79° ESE 21:28:17 10° NNE
Cosmos 1125 Rocket 4.4 21:24:28 10° NNW 21:29:33 47° WSW 21:32:24 24° SSW
ERS-1 Rocket 3.9 21:31:51 35° NE 21:31:51 35° NE 21:35:24 10° N
Resurs 01 Rocket 3.0 21:28:06 17° SSW 21:31:02 37° W 21:35:09 10° NNW
GEOS 3 Rocket 4.0 21:34:02 50° S 21:34:02 50° S 21:38:06 10° SSW
FALCON 9 R/B 3.2 21:31:32 10° WSW 21:34:47 34° S 21:34:47 34° S
GP-B 4.2 21:31:12 10° NNW 21:35:24 42° W 21:38:38 16° SSW
Nadezhda 3 Rocket 4.4 21:30:10 10° NNW 21:36:23 61° W 21:40:53 19° SSW
Envisat 3.9 21:34:58 23° SSW 21:37:49 46° W 21:42:43 10° NNW
Cosmos 292 Rocket 4.1 21:42:02 59° N 21:42:02 59° N 21:46:03 10° NNE
Cosmos 2218 Rocket 4.2 21:45:54 52° NE 21:45:54 52° NE 21:50:54 10° NNE
Cosmos 2285 Rocket 4.0 21:46:04 65° ENE 21:46:04 65° ENE 21:51:57 10° NNE
Cosmos 2278 3.6 21:40:43 10° NNW 21:46:08 72° NE 21:46:08 72° NE
H-2A R/B 3.7 21:49:43 22° NNE 21:49:43 22° NNE 21:51:57 10° N
Meteor 2-21 4.3 21:49:26 75° SSE 21:49:58 84° E 21:56:07 10° N
Cosmos 1953 4.0 21:58:27 33° NW 21:58:27 33° NW 22:01:29 10° N
Cosmos 2322 Rocket 4.3 21:57:08 10° N 21:59:11 14° NNE 21:59:11 14° NNE
ATLAS 2AS CENTAUR R/B 2.9 21:54:15 10° NW 22:02:19 72° NE 22:02:57 68° E
Meteor 2-15 Rocket 4.4 21:58:58 10° N 22:04:40 79° NNW 22:04:40 79° NNW
SL-8 Rocket 4.0 22:11:19 74° W 22:11:20 74° W 22:17:31 10° N
Cosmos 1697 Rocket 3.4 22:05:40 10° NNW 22:09:50 48° N 22:09:50 48° N
Cosmos 1727 Rocket 4.3 22:05:09 10° N 22:10:13 57° NNE 22:10:13 57° NNE
Cosmos 1980 Rocket 3.4 22:06:54 10° NNW 22:10:25 32° NNE 22:10:25 32° NNE
Cosmos 1656 4.2 22:10:51 10° NNW 22:15:21 56° NW 22:15:21 56° NW
Terra 4.4 22:24:58 13° NNE 22:24:58 13° NNE 22:25:29 10° N
BREEZE-M DEB (TANK) 3.9 22:10:41 10° WNW 22:24:49 59° N 22:24:49 59° N
USA 267 4.4 22:29:38 32° NNE 22:30:28 33° NNE 22:36:08 10° NW
SL-16 R/B 4.2 22:32:54 10° N 22:35:11 20° NNE 22:35:11 20° NNE
